TIME,DELAY(SENSOR),PRES,OXYGEN,RAWTEMP,T(OPTODE),TCPHASE,FLUOR,BETA(BETA700),BETA(BETA412),BETA(BETA440),CDOM,C(CSC),ED(ED411.90),ED(ED443.80),ED(ED489.40),ED(ED554.70),LU(LU412.20),LU(LU443.80),LU(LU489.40),LU(LU555.00),COMP,TILTX,TILTY,CHECK
1366324522,5804,883.7100219726562000,179.1819000244140600,487.0237121582031000,7.9315180778503420,39.0292091369628900,52,102,96,80,80,11343,2146963474,2147517842,2147292361,2147508480,2147086400,2146929737,2147707382,2147119241,2761,-1,8,1652
1366328118,5803,970.9000244140625000,228.2310943603515600,541.6248168945312000,6.2320542335510250,37.0086708068847660,52,102,97,80,81,11342,2146961664,2147520923,2147299328,2147516242,2147086464,2146921344,2147722779,2147121097,2892,-1,8,30512
1366331718,5808,988.7899780273438000,237.6676940917968800,549.6447753906250000,5.9805908203125000,36.6550712585449200,53,103,97,79,82,11342,2146960512,2147519552,2147299931,2147520201,2147086372,2146922569,2147729280,2147121627,270,-1,8,26989
1366335318,5808,998.6799926757812000,239.3825988769531200,548.7125854492188000,6.0098462104797360,36.5499496459960940,51,104,96,79,80,11336,2146964077,2147518546,2147299154,2147519131,2147087926,2146918674,2147728128,2147124214,111,-1,8,64779
1366338918,5809,1003.2100219726562000,235.4418945312500000,548.9282836914062000,6.0030779838562010,36.7576484680175800,52,102,97,79,81,11322,2146963547,2147521874,2147299638,2147521060,2147085449,2146920566,2147724800,2147121600,261,-1,8,32059
1366342518,5807,1008.0700073242188000,233.6970062255859400,548.8723754882812000,6.0048308372497560,36.8484802246093750,51,103,97,79,79,11336,2146963602,2147521536,2147297600,2147520192,2147086921,2146915785,2147727643,2147120109,127,-1,8,35838
1366346118,5804,1013.9199829101562000,234.5935058593750000,547.7329101562500000,6.0405831336975100,36.7807502746582000,52,102,97,79,80,11325,2146964763,2147520502,2147296585,2147521216,2147085147,2146923858,2147723712,2147122459,701,-1,8,27142
1366349718,5803,1014.0999755859375000,240.5953063964843800,548.9190063476562000,6.0033679008483890,36.4910507202148440,52,102,97,79,81,11307,2146964333,2147519405,2147298633,2147520365,2147086784,2146921453,2147725787,2147119826,3098,-1,8,21509
1366353318,5805,1013.2999877929688000,236.6300964355468800,549.2255859375000000,5.9937458038330080,36.7011795043945300,51,100,98,79,79,11339,2146965970,2147522816,2147297426,2147521161,2147089709,2146915629,2147729170,2147124443,103,-1,8,36467
1366356918,5807,1013.4899902343750000,236.2274932861328000,550.1754150390625000,5.9639358520507810,36.7397918701171900,51,100,98,79,81,11341,2146962642,2147521636,2147299465,2147520256,2147090057,2146918043,2147727698,2147121225,3455,0,8,25738
1366360518,5807,1009.3499755859375000,245.0677032470703000,551.4776000976562000,5.9230542182922360,36.3112907409668000,51,103,97,80,80,11334,2146962176,2147518180,2147297526,2147515648,2147088429,2146918601,2147728758,2147121234,118,-1,8,31274
1366364118,5806,1009.4299926757812000,242.9822998046875000,552.2346191406250000,5.8992819786071780,36.4301109313964840,52,100,98,78,80,11337,2146964818,2147522084,2147302390,2147519131,2147089243,2146917430,2147730742,2147123611,127,-1,8,35652
1366367718,5806,1011.7000122070312000,247.1726074218750000,552.8502197265625000,5.8799481391906740,36.2310295104980500,52,107,97,78,79,11337,2146962230,2147523721,2147298349,2147520155,2147086610,2146922130,2147726198,2147119058,174,-1,8,37587
1366371318,5806,1009.8400268554688000,248.8699035644531200,554.2634887695312000,5.8355450630187990,36.1726303100585940,52,108,99,80,81,11338,2146963053,2147521325,2147300315,2147521846,2147089280,2146921490,2147731456,2147120813,3014,-1,8,3655
1366374918,5805,1012.2100219726562000,249.4983978271484400,555.4517822265625000,5.7982010841369630,36.1635398864746100,52,103,97,79,79,11335,2146963885,2147520265,2147299821,2147519232,2147087597,2146918592,2147729517,2147122779,3520,-1,8,485
1366378518,5807,1015.7000122070312000,249.3703002929687500,553.7385253906250000,5.8520431518554690,36.1388816833496100,51,104,98,78,80,11336,2146961636,2147522157,2147300013,2147519497,2147086564,2146919451,2147729197,2147116818,658,-1,8,43713
1366382118,5808,1016.3900146484375000,249.1499023437500000,553.9514770507812000,5.8453497886657715,36.1537590026855500,53,104,98,79,81,11336,2146962468,2147521316,2147299401,2147519936,2147086043,2146915099,2147726445,2147120100,335,-1,8,41338
1366385718,5806,1015.0700073242188000,248.7973937988281200,554.5964965820312000,5.8250827789306640,36.1825599670410160,52,111,99,79,80,11335,2146962642,2147521920,2147294171,2147518646,2147086491,2146921371,2147725147,2147124882,3530,-1,8,37930
1366389318,5806,1010.7899780273438000,247.9277954101562500,555.2880249023438000,5.8033490180969240,36.2379493713378900,52,106,96,79,80,11330,2146962148,2147522157,2147297088,2147517101,2147088438,2146914816,2147722304,2147120329,3113,-1,8,6441
1366392918,5804,1014.6799926757812000,246.7835998535156200,555.6843261718750000,5.7908949851989750,36.3024215698242200,52,102,98,78,81,11334,2146962212,2147513216,2147297901,2147520256,2147087003,2146920521,2147724946,2147119899,3374,-1,8,45938
1366396518,5805,1016.9099731445312000,248.9326019287109400,554.8895874023438000,5.8158721923828125,36.1811981201171900,52,105,98,80,80,11329,2146964836,2147514980,2147295652,2147522404,2147088722,2146921005,2147727533,2147121307,3460,-1,8,28866
1366400118,5806,1013.1900024414062000,250.2960968017578000,556.0021972656250000,5.7809009552001950,36.1345901489257800,52,104,97,79,81,11331,2146963245,2147522569,2147299017,2147519643,2147088822,2146920722,2147728859,2147120777,3314,-1,8,25045
1366403718,5804,1014.0700073242188000,249.2709960937500000,554.6953735351562000,5.8219738006591800,36.1611099243164060,52,102,97,80,81,11322,2146963117,2147520338,2147299894,2147521024,2147088923,2146917485,2147727259,2147118912,3097,-1,8,3857
1366407318,5805,1018.0900268554688000,247.2458953857422000,554.2797851562500000,5.8350319862365720,36.2538185119628900,52,101,98,79,81,11324,2146961408,2147520914,2147298331,2147518912,2147088740,2146918208,2147728228,2147121737,3411,-1,8,4056
1366410918,5807,1015.8699951171875000,247.8811950683593800,554.0106811523438000,5.8434891700744630,36.2170906066894500,52,102,97,78,80,11329,2146964160,2147519396,2147296128,2147520329,2147086491,2146913627,2147725467,2147120384,303,-1,8,28939
1366414518,5806,1016.7600097656250000,246.8141937255859400,553.8499755859375000,5.8485388755798340,36.2670707702636700,51,100,97,78,81,11325,2146964251,2147519881,2147296448,2147520996,2147086518,2146922176,2147723666,2147122258,576,-1,8,32769
1366418118,5806,1018.4299926757812000,243.5861968994140600,554.5806884765625000,5.8255791664123535,36.4422187805175800,52,103,97,79,81,11330,2146962898,2147520502,2147297554,2147521664,2147087058,2146919963,2147733513,2147120228,3563,-1,8,890
1366421718,5806,1018.5399780273438000,247.2243957519531200,552.6964721679688000,5.8847751617431640,36.2258796691894500,52,101,96,79,80,11291,2146961380,2147519680,2147298459,2147519643,2147086985,2146919689,2147726720,2147123922,897,-1,8,4211
1366425318,5804,1019.7399902343750000,245.1067962646484400,554.4213867187500000,5.8305840492248535,36.3628692626953100,52,100,98,78,81,11285,2146963428,2147517248,2147298715,2147521179,2147091291,2146917915,2147732918,2147121206,608,0,8,42421
1366428918,5805,1019.2700195312500000,249.6295013427734400,554.3024902343750000,5.8343200683593750,36.1360588073730500,52,104,96,79,79,11289,2146964790,2147518400,2147299520,2147520886,2147089600,2146915337,2147728219,2147125522,2472,-1,8,15743
1366432518,5804,1017.5900268554688000,249.3798065185547000,554.3583984375000000,5.8325648307800290,36.1495895385742200,52,101,97,79,79,11288,2146964964,2147519149,2147297920,2147520100,2147088630,2146922130,2147726034,2147123108,2803,-1,8,45663
1366436118,5808,1017.3099975585938000,250.0717926025390600,554.8483886718750000,5.8171648979187010,36.1243095397949200,52,106,97,79,79,11290,2146961444,2147521270,2147300571,2147521353,2147086354,2146920420,2147722166,2147127542,222,-1,8,22400
1366439718,5805,1023.2899780273438000,249.1705932617187500,553.1378173828125000,5.8709139823913570,36.1379814147949200,52,104,97,78,81,11283,2146964525,2147519872,2147298614,2147521161,2147088603,2146912978,2147727259,2147121188,3263,-1,8,64815
1366443318,5807,1023.1799926757812000,249.7642974853515600,553.8203735351562000,5.8494682312011720,36.1213493347168000,53,103,96,79,81,11280,2146963867,2147519835,2147300269,2147518838,2147091008,2146923099,2147730806,2147124187,3340,-1,8,4376
1366446918,5806,1019.4199829101562000,249.6056060791015600,554.1621093750000000,5.8387317657470700,36.1353607177734400,52,103,99,79,82,11279,2146960009,2147520813,2147298660,2147518354,2147088137,2146918765,2147726454,2147121298,3283,-1,8,45010
1366450518,5808,1019.0000000000000000,251.9803009033203000,556.5493774414062000,5.7636947631835940,36.0625801086425800,53,103,96,80,81,11277,2146959908,2147518281,2147301814,2147518564,2147087040,2146923995,2147728950,2147119579,3568,-1,8,43686
1366454118,5807,1018.9899902343750000,251.5113067626953000,556.6021118164062000,5.7620410919189450,36.0859489440918000,51,102,97,79,81,11277,2146962651,2147523190,2147298925,2147517988,2147089828,2146919716,2147727542,2147121572,3261,-1,8,2655
1366457718,5807,1023.0200195312500000,249.0005950927734400,556.0733032226562000,5.7786660194396970,36.1991806030273440,52,104,98,79,80,11278,2146961993,2147519286,2147301504,2147519597,2147088740,2146926354,2147729325,2147118729,3570,-1,8,51159
1366461318,5806,1024.1700439453125000,251.0545043945312500,555.1209716796875000,5.8085980415344240,36.0813407897949200,51,104,99,79,81,11278,2146963318,2147521472,2147299236,2147519213,2147086893,2146920027,2147729161,2147120996,273,-1,8,30933
1366464918,5805,1023.8699951171875000,250.9528961181640600,555.2921752929688000,5.8032169342041020,36.0895195007324200,52,103,98,78,80,11273,2146963428,2147520310,2147299136,2147519049,2147085933,2146916928,2147730432,2147119972,667,-1,8,12787
1366468556,5805,1024.6500244140625000,247.4113006591797000,554.1798706054688000,5.8381710052490230,36.2438392639160160,52,101,98,79,80,11309,2146960502,2147519405,2147300763,2147517074,2147089371,2146916918,2147725952,2147120438,3417,-1,8,47242
